Time,TemperatureF,DewpointF,PressureIn,WindDirection,WindDirectionDegrees,WindSpeedMPH,WindSpeedGustMPH,Humidity,HourlyPrecipIn,Conditions,Clouds,dailyrainin,SoftwareType,DateUTC
2013-04-06 00:14:00,38.0,23.0,29.99,NW,314,2.0,6.0,56,0.00,,,0.00,weatherlink.com 1.10,2013-04-06 04:14:00,
2013-04-06 00:29:00,37.6,23.0,29.99,North,350,2.0,8.0,57,0.00,,,0.00,weatherlink.com 1.10,2013-04-06 04:29:00,
2013-04-06 00:44:00,37.3,24.0,30.00,NW,309,4.0,4.0,58,0.00,,,0.00,weatherlink.com 1.10,2013-04-06 04:44:00,
2013-04-06 00:59:00,36.9,24.0,30.00,NNW,345,4.0,5.0,59,0.00,,,0.00,weatherlink.com 1.10,2013-04-06 04:59:00,
2013-04-06 01:14:00,36.7,23.0,30.01,North,355,3.0,8.0,59,0.00,,,0.00,weatherlink.com 1.10,2013-04-06 05:14:00,
2013-04-06 01:29:00,36.6,23.0,30.01,NNW,329,3.0,5.0,58,0.00,,,0.00,weatherlink.com 1.10,2013-04-06 05:29:00,
2013-04-06 01:44:00,36.4,23.0,30.01,NW,312,2.0,6.0,58,0.00,,,0.00,weatherlink.com 1.10,2013-04-06 05:44:00,
2013-04-06 01:59:00,36.0,22.0,30.02,NNW,331,1.0,3.0,58,0.00,,,0.00,weatherlink.com 1.10,2013-04-06 05:59:00,
2013-04-06 02:14:00,35.7,22.0,30.02,North,355,1.0,5.0,59,0.00,,,0.00,weatherlink.com 1.10,2013-04-06 06:14:00,
2013-04-06 02:30:00,35.4,22.0,30.03,NW,315,3.0,6.0,59,0.00,,,0.00,weatherlink.com 1.10,2013-04-06 06:30:00,
2013-04-06 02:45:00,35.5,22.0,30.04,NNW,331,2.0,8.0,59,0.00,,,0.00,weatherlink.com 1.10,2013-04-06 06:45:00,
2013-04-06 02:59:00,35.2,22.0,30.04,NNW,342,3.0,11.0,58,0.00,,,0.00,weatherlink.com 1.10,2013-04-06 06:59:00,
2013-04-06 03:15:00,35.0,22.0,30.05,NNW,327,3.0,8.0,59,0.00,,,0.00,weatherlink.com 1.10,2013-04-06 07:15:00,
2013-04-06 03:30:00,34.8,22.0,30.05,NW,319,4.0,6.0,59,0.00,,,0.00,weatherlink.com 1.10,2013-04-06 07:30:00,
2013-04-06 04:00:00,34.9,21.0,30.07,WNW,298,4.0,9.0,57,0.00,,,0.00,weatherlink.com 1.10,2013-04-06 08:00:00,
2013-04-06 04:15:00,34.7,21.0,30.09,NW,311,8.0,12.0,58,0.00,,,0.00,weatherlink.com 1.10,2013-04-06 08:15:00,
2013-04-06 04:30:00,34.7,23.0,30.09,NNW,343,5.0,16.0,63,0.00,,,0.00,weatherlink.com 1.10,2013-04-06 08:30:00,
2013-04-06 04:45:00,34.6,23.0,30.11,WNW,298,4.0,12.0,62,0.00,,,0.00,weatherlink.com 1.10,2013-04-06 08:45:00,
2013-04-06 05:00:00,34.3,20.0,30.12,NW,308,11.0,14.0,56,0.00,,,0.00,weatherlink.com 1.10,2013-04-06 09:00:00,
2013-04-06 05:15:00,33.5,18.0,30.13,North,5,8.0,16.0,53,0.00,,,0.00,weatherlink.com 1.10,2013-04-06 09:15:00,
2013-04-06 05:30:00,32.9,17.0,30.14,North,11,8.0,21.0,52,0.00,,,0.00,weatherlink.com 1.10,2013-04-06 09:30:00,
2013-04-06 05:45:00,32.5,16.0,30.15,NNE,13,9.0,15.0,50,0.00,,,0.00,weatherlink.com 1.10,2013-04-06 09:45:00,
2013-04-06 06:00:00,32.1,15.0,30.16,North,5,4.0,14.0,50,0.00,,,0.00,weatherlink.com 1.10,2013-04-06 10:00:00,
2013-04-06 06:15:00,31.9,15.0,30.16,NW,306,11.0,14.0,49,0.00,,,0.00,weatherlink.com 1.10,2013-04-06 10:15:00,
2013-04-06 06:30:00,31.5,15.0,30.18,NW,312,4.0,9.0,50,0.00,,,0.00,weatherlink.com 1.10,2013-04-06 10:30:00,
2013-04-06 06:45:00,31.2,14.0,30.18,NNW,339,4.0,13.0,50,0.00,,,0.00,weatherlink.com 1.10,2013-04-06 10:45:00,
2013-04-06 07:00:00,31.2,14.0,30.20,NNW,333,4.0,13.0,50,0.00,,,0.00,weatherlink.com 1.10,2013-04-06 11:00:00,
2013-04-06 07:15:00,31.2,14.0,30.20,NW,317,4.0,15.0,49,0.00,,,0.00,weatherlink.com 1.10,2013-04-06 11:15:00,
2013-04-06 07:30:00,31.2,14.0,30.21,NNW,344,5.0,15.0,49,0.00,,,0.00,weatherlink.com 1.10,2013-04-06 11:30:00,
2013-04-06 07:45:00,31.1,13.0,30.22,NW,326,5.0,15.0,48,0.00,,,0.00,weatherlink.com 1.10,2013-04-06 11:45:00,
2013-04-06 08:00:00,31.4,13.0,30.23,North,360,5.0,14.0,46,0.00,,,0.00,weatherlink.com 1.10,2013-04-06 12:00:00,
2013-04-06 08:16:00,32.1,12.0,30.24,NNW,333,6.0,11.0,44,0.00,,,0.00,weatherlink.com 1.10,2013-04-06 12:16:00,
2013-04-06 08:31:00,32.5,11.0,30.24,North,355,3.0,14.0,41,0.00,,,0.00,weatherlink.com 1.10,2013-04-06 12:31:00,
2013-04-06 08:46:00,32.7,10.0,30.25,NNW,337,3.0,15.0,39,0.00,,,0.00,weatherlink.com 1.10,2013-04-06 12:46:00,
2013-04-06 09:01:00,32.9,10.0,30.25,NNW,328,8.0,16.0,38,0.00,,,0.00,weatherlink.com 1.10,2013-04-06 13:01:00,
2013-04-06 09:16:00,33.6,10.0,30.25,WNW,302,11.0,20.0,37,0.00,,,0.00,weatherlink.com 1.10,2013-04-06 13:16:00,
2013-04-06 09:31:00,34.1,10.0,30.26,NW,325,9.0,17.0,37,0.00,,,0.00,weatherlink.com 1.10,2013-04-06 13:31:00,
2013-04-06 09:46:00,34.9,10.0,30.27,NW,325,5.0,16.0,35,0.00,,,0.00,weatherlink.com 1.10,2013-04-06 13:46:00,
2013-04-06 10:01:00,35.5,10.0,30.27,North,360,13.0,16.0,35,0.00,,,0.00,weatherlink.com 1.10,2013-04-06 14:01:00,
2013-04-06 10:16:00,36.0,10.0,30.28,NNW,344,4.0,13.0,34,0.00,,,0.00,weatherlink.com 1.10,2013-04-06 14:16:00,
2013-04-06 11:01:00,38.9,9.0,30.29,NE,52,6.0,13.0,29,0.00,,,0.00,weatherlink.com 1.10,2013-04-06 15:01:00,
2013-04-06 11:16:00,39.5,11.0,30.29,NW,325,5.0,14.0,31,0.00,,,0.00,weatherlink.com 1.10,2013-04-06 15:16:00,
2013-04-06 11:31:00,40.6,13.0,30.28,NW,316,8.0,11.0,32,0.00,,,0.00,weatherlink.com 1.10,2013-04-06 15:31:00,
2013-04-06 12:16:00,42.1,9.0,30.29,NNW,341,3.0,10.0,26,0.00,,,0.00,weatherlink.com 1.10,2013-04-06 16:16:00,
2013-04-06 12:31:00,42.8,13.0,30.28,NNW,336,4.0,10.0,30,0.00,,,0.00,weatherlink.com 1.10,2013-04-06 16:31:00,
2013-04-06 12:46:00,44.2,12.0,30.29,North,5,4.0,13.0,27,0.00,,,0.00,weatherlink.com 1.10,2013-04-06 16:46:00,
2013-04-06 13:16:00,43.8,12.0,30.28,NW,325,10.0,11.0,27,0.00,,,0.00,weatherlink.com 1.10,2013-04-06 17:16:00,
2013-04-06 13:31:00,45.2,11.0,30.27,SW,232,2.0,8.0,25,0.00,,,0.00,weatherlink.com 1.10,2013-04-06 17:31:00,
2013-04-06 13:46:00,45.9,17.0,30.28,WNW,299,5.0,12.0,32,0.00,,,0.00,weatherlink.com 1.10,2013-04-06 17:46:00,
2013-04-06 14:16:00,46.4,10.0,30.27,NE,45,4.0,12.0,23,0.00,,,0.00,weatherlink.com 1.10,2013-04-06 18:16:00,
2013-04-06 14:31:00,47.2,16.0,30.27,NNW,345,3.0,8.0,29,0.00,,,0.00,weatherlink.com 1.10,2013-04-06 18:31:00,
2013-04-06 15:02:00,47.7,11.0,30.27,WNW,297,5.0,11.0,23,0.00,,,0.00,weatherlink.com 1.10,2013-04-06 19:02:00,
2013-04-06 15:17:00,48.2,13.0,30.27,North,350,9.0,10.0,24,0.00,,,0.00,weatherlink.com 1.10,2013-04-06 19:17:00,
2013-04-06 15:31:00,48.4,14.0,30.26,NNW,332,6.0,11.0,25,0.00,,,0.00,weatherlink.com 1.10,2013-04-06 19:31:00,
2013-04-06 15:47:00,49.7,11.0,30.25,NNW,340,5.0,11.0,21,0.00,,,0.00,weatherlink.com 1.10,2013-04-06 19:47:00,
2013-04-06 16:02:00,49.2,13.0,30.25,NW,316,5.0,13.0,23,0.00,,,0.00,weatherlink.com 1.10,2013-04-06 20:02:00,
2013-04-06 16:17:00,49.8,10.0,30.26,WSW,257,2.0,13.0,20,0.00,,,0.00,weatherlink.com 1.10,2013-04-06 20:17:00,
2013-04-06 16:32:00,50.4,8.0,30.26,SW,235,2.0,8.0,18,0.00,,,0.00,weatherlink.com 1.10,2013-04-06 20:32:00,
2013-04-06 16:47:00,49.7,9.0,30.26,NW,326,9.0,14.0,19,0.00,,,0.00,weatherlink.com 1.10,2013-04-06 20:47:00,
2013-04-06 17:02:00,50.1,8.0,30.26,NNE,14,3.0,9.0,18,0.00,,,0.00,weatherlink.com 1.10,2013-04-06 21:02:00,
2013-04-06 17:17:00,50.1,8.0,30.26,South,180,3.0,10.0,18,0.00,,,0.00,weatherlink.com 1.10,2013-04-06 21:17:00,
2013-04-06 17:32:00,51.1,9.0,30.27,West,263,2.0,4.0,18,0.00,,,0.00,weatherlink.com 1.10,2013-04-06 21:32:00,
2013-04-06 17:47:00,51.4,9.0,30.27,WNW,303,1.0,7.0,18,0.00,,,0.00,weatherlink.com 1.10,2013-04-06 21:47:00,
2013-04-06 18:02:00,51.7,7.0,30.28,SSW,200,2.0,8.0,16,0.00,,,0.00,weatherlink.com 1.10,2013-04-06 22:02:00,
2013-04-06 18:17:00,51.1,6.0,30.28,WNW,283,0.0,3.0,16,0.00,,,0.00,weatherlink.com 1.10,2013-04-06 22:17:00,
2013-04-06 18:32:00,49.3,12.0,30.29,SW,229,1.0,2.0,22,0.00,,,0.00,weatherlink.com 1.10,2013-04-06 22:32:00,
2013-04-06 18:47:00,47.8,11.0,30.29,SW,229,0.0,1.0,23,0.00,,,0.00,weatherlink.com 1.10,2013-04-06 22:47:00,
2013-04-06 19:02:00,46.4,17.0,30.29,SW,229,0.0,0.0,31,0.00,,,0.00,weatherlink.com 1.10,2013-04-06 23:02:00,
2013-04-06 19:17:00,44.8,16.0,30.29,SW,229,0.0,1.0,32,0.00,,,0.00,weatherlink.com 1.10,2013-04-06 23:17:00,
2013-04-06 19:32:00,43.4,16.0,30.30,SW,229,0.0,0.0,33,0.00,,,0.00,weatherlink.com 1.10,2013-04-06 23:32:00,
2013-04-06 19:47:00,42.1,19.0,30.30,SW,229,0.0,0.0,40,0.00,,,0.00,weatherlink.com 1.10,2013-04-06 23:47:00,
2013-04-06 20:02:00,40.9,16.0,30.30,SW,229,0.0,0.0,37,0.00,,,0.00,weatherlink.com 1.10,2013-04-07 00:02:00,
2013-04-06 20:17:00,40.0,18.0,30.31,SW,229,0.0,0.0,41,0.00,,,0.00,weatherlink.com 1.10,2013-04-07 00:17:00,
2013-04-06 20:32:00,39.0,16.0,30.31,SW,229,0.0,0.0,39,0.00,,,0.00,weatherlink.com 1.10,2013-04-07 00:32:00,
2013-04-06 20:47:00,38.3,16.0,30.31,SW,229,0.0,0.0,41,0.00,,,0.00,weatherlink.com 1.10,2013-04-07 00:47:00,
2013-04-06 21:02:00,37.6,17.0,30.32,SW,229,0.0,0.0,43,0.00,,,0.00,weatherlink.com 1.10,2013-04-07 01:02:00,
2013-04-06 21:17:00,37.0,17.0,30.32,SW,229,0.0,0.0,44,0.00,,,0.00,weatherlink.com 1.10,2013-04-07 01:17:00,
2013-04-06 21:32:00,36.5,16.0,30.32,SW,229,0.0,0.0,43,0.00,,,0.00,weatherlink.com 1.10,2013-04-07 01:32:00,
2013-04-06 21:47:00,35.9,18.0,30.32,SW,229,1.0,1.0,49,0.00,,,0.00,weatherlink.com 1.10,2013-04-07 01:47:00,
2013-04-06 22:02:00,35.4,17.0,30.32,SW,229,0.0,1.0,47,0.00,,,0.00,weatherlink.com 1.10,2013-04-07 02:02:00,
2013-04-06 22:17:00,34.8,17.0,30.32,SW,229,0.0,2.0,49,0.00,,,0.00,weatherlink.com 1.10,2013-04-07 02:17:00,
2013-04-06 22:32:00,34.3,17.0,30.33,SW,229,0.0,1.0,50,0.00,,,0.00,weatherlink.com 1.10,2013-04-07 02:32:00,
2013-04-06 22:47:00,33.8,17.0,30.32,SW,229,0.0,1.0,51,0.00,,,0.00,weatherlink.com 1.10,2013-04-07 02:47:00,
2013-04-06 23:02:00,33.6,18.0,30.32,SW,229,1.0,3.0,54,0.00,,,0.00,weatherlink.com 1.10,2013-04-07 03:02:00,
2013-04-06 23:17:00,33.3,19.0,30.32,SW,229,0.0,0.0,56,0.00,,,0.00,weatherlink.com 1.10,2013-04-07 03:17:00,
2013-04-06 23:32:00,33.1,20.0,30.32,SW,229,0.0,2.0,60,0.00,,,0.00,weatherlink.com 1.10,2013-04-07 03:32:00,
2013-04-06 23:47:00,33.0,20.0,30.32,SW,229,0.0,2.0,59,0.00,,,0.00,weatherlink.com 1.10,2013-04-07 03:47:00,